Regional Weather Roundup
Issued by NWS

Home | Current Version | Previous Version | Text Only | Print | Product List | Glossary On
Versions: 1 2 3 4 5 6 7 8 9 10 11 12 13 14 15 16 17 18 19 20 21 22 23 24 25 26 27 28 29 30 31 32 33 34 35 36 37 38 39 40 41 42 43 44 45 46 47 48 49 50
000
ASUS45 KBOU 211610
RWRCO

WEATHER ROUNDUP FOR COLORADO
NATIONAL WEATHER SERVICE DENVER/BOULDER CO
900 AM MST WED FEB 21 2018

NOTE: "FAIR" INDICATES FEW OR NO CLOUDS BELOW 12000 FEET WITH NO
SIGNIFICANT WEATHER AND/OR OBSTRUCTIONS TO VISIBILITY.

COZ001>005-013-030-031-211700-
...NORTHWEST COLORADO...

CITY           SKY/WX    TMP DP  RH WIND       PRES   REMARKS
CRAIG          FAIR      -5  -7  91 CALM      30.15S
HAYDEN         FAIR       1  -7  68 SE13      30.13S WCI -17
MEEKER         FAIR       1  -3  83 CALM      30.12S
RANGELY        FAIR       4  -4  68 E7        30.19F WCI  -8
RABBIT EARS PA FAIR       3   1  92 SW10G17   29.93S WCI -12
STEAMBOAT SPGS FAIR      -3  -8  80 CALM      30.12S
WALDEN         FAIR       7  -2  66 SW8       30.05R WCI  -6
$$

COZ006>008-011-211700-
...WEST CENTRAL VALLEYS...

CITY           SKY/WX    TMP DP  RH WIND       PRES   REMARKS
GRAND JUNCTION FAIR      23  11  60 E15       30.17S WCI  10
MONTROSE       FAIR      16   6  65 CALM      30.19F
EAGLE          FAIR       9  -2  61 CALM      30.20S
RIFLE          FAIR      12   5  73 CALM      30.19R
DELTA          FAIR      20   9  64 CALM      30.20F
NUCLA          FAIR      19   9  63 CALM      30.17F
$$

COZ017>023-064>068-211700-
...SOUTHWEST COLORADO...

CITY           SKY/WX    TMP DP  RH WIND       PRES   REMARKS
DURANGO        PTSUNNY   19  10  68 CALM      30.12F
CORTEZ         CLOUDY    24  13  62 VRB3      30.11F
PAGOSA SPRINGS FAIR      15   5  64 NE3       30.12S
TELLURIDE      FAIR      18  -5  36 NE3       30.04S
WOLF CREEK PAS CLOUDY     3   1  92 S18G28    30.02R WCI -17
$$

COZ009-010-012-014-032>034-037-058>063-211700-
...CENTRAL COLORADO...

CITY           SKY/WX    TMP DP  RH WIND       PRES   REMARKS
ASPEN          FAIR       8  -2  63 CALM      30.05S
BUENA VISTA    FAIR      11  -5  49 NW3       30.10S
COPPER MTN     FAIR       7 -17  33 S15       29.90R WCI -11
BERTHOUD PASS  FAIR      -2 -13  60 W17G26    29.86S WCI -24
COTTONWOOD PAS FAIR      18   1  49 E7        30.00S WCI   8
GUNNISON       FAIR       2  -6  69 CALM      30.17S
GRANBY         FAIR      -3  -8  79 CALM      30.10S
KREMMLING      FAIR       9   0  66 CALM      30.16S
LEADVILLE      FAIR       1  -7  68 N3        29.98S
MONARCH PASS   FAIR       1  -4  78 SW16      30.04R WCI -18
SALIDA         FAIR      13  -2  52 N10       30.19S WCI   0
SUNLIGHT       FAIR       1  -4  78 S7        30.01R WCI -11
WILKERSON PASS FAIR       3  -2  78 SW17G25   29.95S WCI -17
$$

COZ069>075-211700-
...SAN LUIS VALLEY/SANGRE DE CRISTO MOUNTAINS...

CITY           SKY/WX    TMP DP  RH WIND       PRES   REMARKS
ALAMOSA        FAIR      13   0  56 CALM      30.13S
DEL NORTE      FAIR      12  -2  52 W10       30.12S WCI  -1
LA VETA PASS   LGT SNOW  18  10  73 S12G26    30.13R VSB 1   WCI   5
SAGUACHE       FAIR      12   0  57 NW14      30.13S WCI  -3
$$

COZ035-036-038>040-211700-
...NORTHERN COLORADO FRONT RANGE...

CITY           SKY/WX    TMP DP  RH WIND       PRES   REMARKS
DENVER INTL AP FAIR       7   3  84 E5        30.20S WCI  -2
AURORA         MOSUNNY   11   9  92 E5        30.18S WCI   3
FRONT RANGE AP MOSUNNY   12   9  85 CALM      30.20S
ERIE MUNI ARPT FAIR       7   4  89 CALM      30.28S
BOULDER MUN AP FAIR      10   9  92 CALM      30.20S
CENTENNIAL     FAIR      13   7  77 CALM      30.16S
BROOMFIELD     MOSUNNY    9   7  92 SE3       30.18S
FORT COLLINS   FAIR       5   1  83 SE5       30.24R WCI  -4
LONGMONT       NOT AVBL
$$

COZ041-046-047-076>085-087-088-211700-
...PIKES PEAK/PALMER DIVIDE AND SOUTHERN FOOTHILLS...

CITY           SKY/WX    TMP DP  RH WIND       PRES   REMARKS
COLO. SPRINGS  FAIR      13   7  77 S5        30.21R WCI   5
A. F. ACADEMY  MOSUNNY    6   2  84 CALM      30.17R
SCHRIEVER AFB  NOT AVBL
CHEYENNE MTN   FAIR      10   8  93 E5        30.10R WCI   2
ELLICOTT         N/A    N/A N/A N/A W3        30.19
FALCON         FAIR      14   7  73 SW6       30.18R WCI   5
FORT CARSON    FAIR      13   5  69 CALM      30.22R
LIMON          FAIR      17   9  70 SE7       30.24F WCI   8
MONUMENT HILL  FAIR      14   7  73 S15       30.13S WCI  -1
CANON CITY     SUNNY     18  10  73 E3        30.25R
WALSENBURG     NOT AVBL
TRINIDAD       FAIR      17   9  70 CALM      30.23R
$$

COZ042>045-048>051-090-091-211700-
...NORTHEAST COLORADO...

CITY           SKY/WX    TMP DP  RH WIND       PRES   REMARKS
GREELEY ARPT   FAIR      -3  -8  79 E3        30.29R
AKRON          FAIR      20   4  50 S13       30.27F WCI   7
BURLINGTON     FAIR      14   0  53 S9        30.35S WCI   2
WRAY           FAIR      23   7  50 SE9       30.38R WCI  13
YUMA           NOT AVBL
STERLING       FAIR       9   3  78 S5        30.32F WCI   0
HOLYOKE        FAIR      21  10  63 S7        30.35F WCI  13
FORT MORGAN    FAIR       7   1  75 W6        30.30R WCI  -3
$$

COZ086-089-092>099-211700-
...SOUTHEAST COLORADO...

CITY           SKY/WX    TMP DP  RH WIND       PRES   REMARKS
PUEBLO         FAIR      17  10  74 CALM      30.29F
LA JUNTA       FAIR      15   7  70 CALM      30.35S
LAMAR          FAIR      16   5  62 CALM      30.39S
SPRINGFIELD      N/A     13  -1  54 VRB5      30.34S WCI   5
$$



USA.gov is the U.S. government's official web portal to all federal, state and local government web resources and services.